PBO Station Position Time Series. Reference Frame : NAM14
Format Version,1.1.0
4-character ID,HOLP
Station name,Hollydale__SCIGN
Begin Date, 1996-01-01
End Date, 2019-03-28
Release Date, 2019-09-26
Reference position, 33.9245395544 North Latitude, -118.1681712263 East Longitude, -6.71666 meters elevation,
Date, North (mm), East (mm), Vertical (mm), North Std. Deviation (mm), East Std. Deviation (mm),              Vertical Std. Deviation (mm), Quality,
1996-01-01,0.00, -4.95, 24.65, 12.07, 22.09, 36.89, repro,
1996-01-02,0.83, 6.63, 5.49, 12.84, 23.33, 34.99, repro,
1996-01-03,-4.30, -2.76, 25.32, 14.43, 26.17, 37.53, repro,
1996-01-04,1.74, 0.00, 0.87, 8.80, 18.01, 25.78, repro,
1996-01-05,-1.63, -8.69, 12.25, 13.93, 25.15, 41.14, repro,
1996-01-06,1.85, 9.51, 17.18, 12.77, 23.64, 35.88, repro,
1996-01-07,5.35, 5.76, 10.76, 14.37, 24.57, 41.68, repro,
1996-01-08,-1.05, -1.17, 16.68, 16.18, 27.31, 47.50, repro,
1996-01-09,-0.96, 13.60, 15.44, 11.15, 21.76, 31.95, repro,
1996-01-10,2.93, 13.47, 29.84, 13.48, 24.51, 39.69, repro,
1996-01-11,5.48, 6.26, 0.00, 3.69, 3.24, 13.36, repro,
1996-01-12,10.26, 14.12, 7.21, 10.60, 21.45, 31.46, repro,
1996-01-13,5.07, 6.80, -9.52, 12.63, 23.39, 35.96, repro,
1996-01-14,-6.11, 5.57, 11.41, 12.45, 22.75, 33.83, repro,
1996-01-15,7.38, -5.46, 0.60, 13.49, 25.32, 37.30, repro,
1996-01-16,0.09, 13.15, -24.15, 13.08, 24.11, 36.25, repro,
1996-01-17,4.39, 3.05, 3.72, 12.94, 23.09, 34.13, repro,
1996-01-18,-2.02, 4.71, -2.26, 12.75, 23.25, 33.41, repro,
1996-01-19,-0.70, -3.58, 8.71, 13.06, 23.10, 34.46, repro,
1996-01-20,9.35, 16.90, -14.37, 14.00, 27.18, 45.12, repro,
1996-01-21,-1.67, 20.71, 6.84, 13.03, 22.45, 32.71, repro,
1996-01-22,1.28, -4.88, -9.49, 9.92, 16.91, 27.21, repro,
1996-01-23,3.87, 8.73, 7.60, 13.20, 23.13, 34.98, repro,
1996-01-24,8.12, 5.58, 1.64, 15.04, 26.84, 38.89, repro,
1996-01-25,-1.48, 5.78, 22.22, 12.49, 22.84, 34.42, repro,
1996-01-26,4.20, 14.13, 1.96, 11.95, 21.12, 34.07, repro,
1996-01-27,81.52, 61.91, -58.05, 134.20, 128.87, 523.84, repro,
1996-01-28,7.02, -2.94, -31.08, 8.36, 15.53, 23.70, repro,
1996-01-29,1.14, 10.75, 23.18, 8.48, 16.39, 24.00, repro,
1996-01-30,2.21, 7.87, -8.41, 4.28, 4.18, 18.69, repro,
1996-01-31,4.77, 7.57, 40.34, 8.39, 15.62, 23.75, repro,
1996-02-01,4.97, 12.02, 4.92, 8.80, 15.92, 24.29, repro,
1996-02-02,1.18, 3.49, 9.19, 8.53, 16.11, 24.24, repro,
1996-02-03,3.97, 14.39, 1.42, 8.80, 16.25, 23.89, repro,
1996-02-04,2.03, 5.49, -10.49, 8.70, 15.98, 24.57, repro,
1996-02-05,0.88, 5.34, -0.94, 8.67, 16.12, 23.52, repro,
1996-02-06,3.28, 15.71, 17.03, 9.20, 17.18, 24.92, repro,
1996-02-07,2.11, 9.12, 1.35, 9.04, 16.48, 24.35, repro,
1996-02-08,3.14, 8.44, 2.65, 8.74, 16.16, 23.91, repro,
1996-02-09,7.10, 10.74, -5.53, 11.45, 23.78, 31.62, repro,
1996-02-10,1.75, 13.41, 20.79, 8.76, 16.44, 24.37, repro,
1996-02-11,3.83, -1.63, 5.15, 8.40, 16.03, 23.72, repro,
1996-02-12,9.21, 12.71, -15.19, 8.65, 16.28, 24.04, repro,
1996-02-13,5.97, 7.65, 4.51, 8.60, 16.82, 24.51, repro,
1996-02-14,-1.63, 9.65, -7.97, 8.76, 15.89, 24.75, repro,
1996-02-15,6.12, 2.00, -13.65, 9.00, 17.35, 24.63, repro,
1996-02-16,0.49, 4.36, -6.69, 10.26, 19.53, 26.57, repro,
1996-02-17,5.26, 2.50, 16.09, 10.41, 19.58, 28.65, repro,
1996-02-18,7.78, 21.35, -6.36, 9.13, 16.36, 25.20, repro,
1996-02-19,-2.19, 11.19, 22.34, 9.06, 16.49, 26.75, repro,
1996-02-20,4.02, 9.09, 20.45, 9.11, 16.94, 25.40, repro,
1996-02-21,3.65, 7.23, -17.19, 9.25, 17.27, 25.46, repro,
1996-02-22,2.80, 8.61, -13.45, 8.61, 16.66, 24.84, repro,
1996-02-23,-0.52, 15.18, -4.97, 8.71, 15.61, 23.79, repro,
1996-02-24,4.22, 7.79, -5.75, 8.69, 15.81, 24.99, repro,
1996-02-25,2.51, 0.92, 11.03, 8.52, 15.71, 25.04, repro,
1996-02-26,4.05, 7.01, 24.16, 8.05, 15.06, 23.02, repro,
1996-02-27,2.23, 9.18, -6.33, 8.33, 15.20, 23.55, repro,
1996-02-28,6.51, -4.77, 1.90, 8.62, 16.51, 25.24, repro,
1996-02-29,1.90, 1.23, 14.90, 8.61, 15.37, 24.45, repro,
1996-03-01,-0.92, 6.85, 8.49, 8.74, 15.95, 24.93, repro,
1996-03-02,3.52, 9.31, 11.20, 9.55, 18.62, 27.89, repro,
1996-03-03,0.98, 0.24, 11.22, 8.70, 16.19, 25.07, repro,
1996-03-04,4.67, 1.75, 20.94, 8.97, 16.21, 25.91, repro,
1996-03-05,1.16, 1.28, 16.57, 9.18, 16.68, 25.40, repro,
1996-03-06,1.36, 1.71, 15.72, 9.15, 17.97, 25.58, repro,
1996-03-07,-0.28, 0.67, 6.81, 9.07, 17.83, 24.14, repro,
1996-03-08,2.31, 0.99, -15.06, 8.89, 17.02, 25.11, repro,
1996-03-09,0.66, 5.89, -3.09, 9.12, 16.57, 25.84, repro,
1996-03-10,3.82, 10.59, -3.25, 8.87, 16.16, 25.60, repro,
1996-03-11,3.12, 11.86, 9.53, 9.01, 16.45, 24.92, repro,
1996-03-12,-2.26, 11.85, 6.88, 8.78, 16.41, 24.58, repro,
1996-03-13,6.27, 4.51, 12.56, 9.06, 16.66, 25.12, repro,
1996-03-14,2.46, 3.99, -12.70, 9.11, 17.00, 25.49, repro,
1996-03-15,2.70, 15.87, -0.97, 11.55, 23.58, 33.78, repro,
1996-03-16,4.17, 14.00, 7.24, 12.80, 23.98, 34.84, repro,
1996-03-17,9.21, -0.42, 4.46, 15.64, 29.31, 46.70, repro,
1996-03-18,6.90, 4.28, 7.65, 16.38, 31.35, 52.02, repro,
1996-03-19,-4.45, 5.04, 10.37, 21.56, 33.64, 53.47, repro,
1996-03-20,1.26, 8.47, 4.50, 15.75, 27.74, 47.45, repro,
1996-03-21,5.40, 3.75, 25.35, 20.39, 37.28, 55.50, repro,
1996-03-22,-1.26, 7.82, -25.41, 18.85, 35.52, 50.60, repro,
1996-03-23,-3.38, 15.44, 40.15, 23.07, 35.88, 57.52, repro,
1996-03-24,-0.68, 7.27, 5.73, 17.45, 32.82, 44.27, repro,
1996-03-25,-0.25, 21.55, -26.36, 18.16, 32.24, 48.29, repro,
1996-03-26,4.76, 13.76, -48.43, 18.21, 31.50, 49.71, repro,
1996-03-27,0.98, 3.79, 17.27, 8.83, 16.63, 24.66, repro,
1996-03-28,0.88, 10.81, 24.01, 8.83, 16.65, 24.53, repro,
1996-03-29,-0.31, 3.43, 6.77, 8.96, 16.51, 24.48, repro,
1996-03-30,2.03, 6.87, 4.82, 9.25, 16.50, 25.52, repro,
1996-03-31,1.77, 8.58, 8.00, 9.45, 16.96, 25.93, repro,
1996-04-01,2.43, 7.43, 16.68, 9.23, 16.99, 26.01, repro,
1996-04-02,3.38, 1.89, 7.82, 9.25, 17.01, 26.02, repro,
1996-04-03,1.18, 12.99, 14.38, 9.21, 16.68, 26.31, repro,
1996-04-04,2.62, 7.49, -2.70, 9.32, 16.43, 25.22, repro,
1996-04-05,-3.24, 15.55, 10.04, 9.55, 17.70, 26.55, repro,
1996-04-06,4.35, 13.06, 6.89, 9.81, 17.44, 27.06, repro,
1996-04-07,2.29, 8.25, 22.33, 9.15, 17.23, 25.51, repro,
1996-04-08,-1.24, 13.31, 10.47, 9.27, 17.37, 26.15, repro,
1996-04-09,4.06, 9.69, -0.59, 9.22, 16.56, 25.30, repro,
1996-04-10,1.81, 14.50, 15.79, 9.16, 16.77, 25.41, repro,
1996-04-11,2.00, 8.73, 9.24, 9.19, 16.94, 25.83, repro,
1996-04-12,8.75, 11.74, 1.42, 10.10, 17.90, 27.82, repro,
1996-04-13,4.95, 7.13, 7.10, 9.62, 17.77, 26.32, repro,
1996-04-14,6.04, 7.90, -0.11, 9.50, 17.49, 25.59, repro,
1996-04-15,-2.96, 7.52, 10.65, 9.21, 17.01, 25.12, repro,
1996-04-16,-0.29, 1.44, 3.46, 9.81, 17.87, 28.50, repro,
1996-04-17,4.81, 12.43, 8.23, 9.04, 16.54, 25.29, repro,
1996-04-18,3.43, 8.70, 15.07, 9.79, 17.48, 26.41, repro,
1996-04-19,3.13, 16.86, 11.94, 9.05, 16.87, 26.75, repro,
1996-04-20,2.99, 10.00, 15.47, 9.20, 17.10, 26.34, repro,
1996-04-21,-0.42, 4.33, 18.96, 9.46, 17.56, 26.58, repro,
1996-04-22,3.19, 8.19, 14.30, 9.47, 17.59, 26.55, repro,
1996-04-23,2.06, 16.91, 6.22, 9.48, 17.45, 26.04, repro,
1996-04-24,1.62, 10.86, -0.06, 8.98, 17.42, 25.04, repro,
1996-04-25,5.43, 6.52, 10.03, 9.21, 17.06, 25.89, repro,
1996-04-26,6.61, 12.25, 6.23, 9.48, 18.59, 27.87, repro,
1996-04-27,2.02, 8.06, 20.49, 9.11, 17.71, 26.22, repro,
1996-04-28,1.38, 24.50, 18.20, 9.43, 17.58, 26.19, repro,
1996-04-29,2.99, 1.91, -13.11, 9.73, 18.16, 28.51, repro,
1996-04-30,8.86, 6.27, 5.98, 9.93, 17.82, 29.15, repro,
1996-05-01,4.27, -2.29, -0.23, 9.65, 18.24, 27.23, repro,
1996-05-02,3.01, 23.23, 19.09, 9.43, 18.67, 28.31, repro,
1996-05-03,0.15, 8.22, 20.42, 9.71, 18.24, 27.71, repro,
1996-05-04,2.18, 7.47, -8.33, 9.70, 18.13, 27.88, repro,
1996-05-05,-0.41, 9.76, 18.61, 9.28, 17.88, 27.33, repro,
1996-05-06,0.57, 2.57, -1.30, 9.17, 18.05, 26.57, repro,
1996-05-07,-0.33, 7.21, -3.26, 9.50, 18.46, 26.73, repro,
1996-05-08,-0.50, 5.13, 12.54, 9.28, 17.90, 26.83, repro,
1996-05-09,3.70, 11.70, 10.27, 9.24, 17.71, 26.74, repro,
1996-05-10,1.29, 11.50, -10.64, 9.41, 18.47, 28.14, repro,
1996-05-11,0.64, 15.50, 8.49, 10.08, 19.28, 29.32, repro,
1996-05-12,2.44, 5.01, -5.18, 10.29, 19.53, 28.18, repro,
1996-05-13,-4.19, 16.18, 19.60, 9.73, 18.78, 27.30, repro,
1996-05-14,3.06, 5.44, 23.03, 10.01, 18.27, 27.08, repro,
1996-05-15,6.39, 11.35, 17.33, 9.52, 17.69, 26.17, repro,
1996-05-16,0.50, 8.04, 5.48, 9.52, 18.50, 25.54, repro,
1996-05-17,3.87, 6.18, -2.99, 9.70, 18.80, 27.37, repro,
1996-05-18,1.56, 6.29, -4.84, 9.42, 18.33, 25.68, repro,
1996-05-19,0.81, 24.17, 6.84, 9.67, 18.22, 27.08, repro,
1996-05-20,-1.92, 15.65, -3.09, 9.56, 18.96, 27.05, repro,
1996-05-21,4.48, 6.45, 3.08, 9.60, 19.08, 26.75, repro,
1996-05-22,-6.31, 21.65, 7.58, 23.37, 34.66, 79.83, repro,
1996-05-23,4.94, 5.83, -18.06, 9.83, 17.84, 26.69, repro,
1996-05-24,-8.34, 25.05, 18.73, 9.85, 18.24, 26.90, repro,
1996-05-25,-2.28, 2.41, -2.96, 11.05, 19.54, 31.86, repro,
1996-05-26,-4.53, 16.26, 4.10, 9.46, 17.74, 26.71, repro,
1996-05-27,1.54, 11.30, 13.28, 9.56, 18.15, 27.38, repro,
1996-05-28,1.50, 8.81, 18.23, 9.90, 18.12, 27.99, repro,
1996-05-29,1.75, 14.00, 15.07, 10.61, 19.95, 30.62, repro,
1996-05-30,-1.75, 6.19, -9.08, 10.07, 18.55, 27.00, repro,
1996-05-31,-1.52, 9.62, -17.66, 9.48, 17.73, 25.84, repro,
1996-06-01,1.17, 12.72, 6.86, 9.60, 18.32, 27.58, repro,
1996-06-02,0.75, 9.05, -7.30, 10.05, 18.76, 27.46, repro,
1996-06-03,-0.67, 10.53, 10.23, 10.10, 19.59, 27.86, repro,
1996-06-04,0.05, -8.58, -19.20, 21.17, 64.74, 61.14, repro,
1996-06-05,0.96, 3.17, -9.75, 10.04, 19.03, 27.98, repro,
1996-06-06,-0.89, 9.15, -8.21, 9.83, 18.40, 26.75, repro,
1996-06-07,1.08, 12.84, 2.73, 10.18, 18.68, 27.87, repro,
1996-06-08,7.36, 9.36, 4.75, 10.83, 19.67, 28.00, repro,
1996-06-09,2.76, 14.81, 6.99, 10.38, 19.50, 29.15, repro,
1996-06-10,-3.83, 3.33, 2.10, 10.25, 19.85, 27.66, repro,
1996-06-11,-1.78, 8.59, -7.24, 11.55, 21.59, 30.81, repro,
1996-06-12,-0.46, 7.27, 4.52, 2.92, 2.67, 11.56, repro,
1996-06-13,2.05, 11.89, -18.80, 10.55, 18.67, 28.04, repro,
1996-06-14,4.40, 10.67, -17.73, 10.32, 19.67, 28.91, repro,
1996-06-15,-1.96, 1.49, -22.38, 10.42, 19.48, 28.58, repro,
1996-06-16,1.76, 0.17, -8.43, 10.44, 19.63, 28.64, repro,
1996-06-17,0.21, -10.30, -11.11, 10.17, 18.95, 27.14, repro,
1996-06-18,-0.00, 6.67, 1.85, 10.56, 20.29, 27.97, repro,
1996-06-19,-3.04, -0.97, -1.79, 10.16, 18.87, 27.52, repro,
1996-06-20,2.83, 5.33, -15.06, 9.61, 18.56, 26.74, repro,
1996-06-21,-1.53, 9.82, 2.34, 10.10, 19.33, 27.61, repro,
1996-06-22,-3.69, 6.48, 10.18, 10.20, 19.38, 28.16, repro,
1996-06-23,-2.51, -1.58, -11.41, 10.26, 19.31, 27.75, repro,
1996-06-24,5.25, 9.86, -14.32, 10.21, 19.73, 28.82, repro,
1996-06-25,0.58, 11.09, 4.34, 10.62, 20.43, 28.82, repro,
1996-06-26,3.25, 4.37, -15.61, 9.90, 18.58, 28.19, repro,
1996-06-27,-2.81, 13.99, -7.34, 9.95, 18.58, 26.67, repro,
1996-06-28,-1.24, 11.86, -9.09, 9.48, 18.19, 25.59, repro,
1996-06-29,-2.59, 10.92, -7.65, 9.76, 18.84, 26.55, repro,
1996-06-30,-1.53, 1.70, -2.05, 11.29, 21.18, 31.05, repro,
1996-07-01,2.45, -1.92, -19.41, 10.63, 19.90, 28.55, repro,
1996-07-02,0.74, 10.50, -3.47, 10.71, 20.86, 30.00, repro,
1996-07-03,1.45, -12.27, 12.23, 10.73, 20.08, 28.46, repro,
1996-07-04,1.16, 19.74, -18.29, 11.47, 21.09, 30.12, repro,
1996-07-05,-1.40, 6.62, -6.10, 10.29, 19.98, 28.32, repro,
1996-07-06,0.61, -4.29, -9.23, 10.66, 20.17, 29.14, repro,
1996-07-07,-1.65, 2.27, 4.71, 10.77, 20.37, 29.73, repro,
1996-07-08,3.92, -9.20, -5.43, 10.72, 20.52, 29.04, repro,
1996-07-09,-1.98, 18.25, -19.64, 10.75, 20.08, 28.74, repro,
1996-07-10,-0.71, 5.49, -14.40, 10.51, 19.21, 28.77, repro,
1996-07-11,-4.74, 19.59, 16.38, 10.22, 19.17, 28.46, repro,
1996-07-12,-3.08, 6.49, -9.84, 10.86, 19.93, 29.72, repro,
1996-07-13,0.11, -2.74, 5.24, 10.60, 20.02, 29.63, repro,
1996-07-14,-3.68, 0.58, 13.62, 10.79, 20.04, 28.93, repro,
1996-07-15,0.03, 0.36, -12.60, 10.43, 19.64, 28.95, repro,
1996-07-16,3.22, 9.13, 5.87, 10.67, 19.79, 29.62, repro,
1996-07-17,0.63, 7.53, -8.85, 10.28, 19.80, 28.51, repro,
1996-07-18,-1.73, 3.44, -6.62, 9.75, 19.27, 27.33, repro,
1996-07-19,-0.98, 11.17, -15.20, 9.91, 19.35, 27.56, repro,
1996-07-20,-3.64, -1.49, 16.83, 10.73, 19.81, 29.48, repro,
1996-07-21,2.91, 8.73, -29.51, 11.07, 21.16, 29.02, repro,
1996-07-22,-3.77, 6.85, 2.65, 10.39, 20.07, 29.15, repro,
1996-07-23,1.87, -1.76, -32.29, 10.65, 20.11, 29.78, repro,
1996-07-24,-7.79, -4.45, -5.50, 10.47, 19.98, 29.16, repro,
1996-07-25,-4.37, -3.51, -7.70, 10.46, 19.82, 28.56, repro,
1996-07-26,-6.87, -9.88, -20.65, 10.81, 20.15, 29.53, repro,
1996-07-27,-5.37, 6.33, -15.47, 11.05, 21.17, 30.55, repro,
1996-07-28,-1.68, -11.82, 1.35, 10.74, 20.72, 29.98, repro,
1996-07-29,-3.76, 3.34, -32.72, 10.44, 20.36, 28.50, repro,
1996-07-30,-5.14, 0.80, -18.71, 10.51, 20.37, 29.00, repro,
1996-07-31,-2.59, 2.43, -13.52, 10.38, 20.26, 28.82, repro,
1996-08-01,-5.21, -6.98, -0.44, 10.88, 20.85, 28.93, repro,
1996-08-02,-4.23, 1.90, -11.79, 11.49, 21.62, 30.26, repro,
1996-08-03,-4.74, -13.32, -23.64, 11.43, 21.97, 29.91, repro,
1996-08-04,-3.02, 13.40, -9.50, 11.21, 21.56, 31.07, repro,
1996-08-05,-10.85, 12.53, 15.57, 11.25, 21.46, 30.48, repro,
1996-08-06,-4.91, -7.12, -17.92, 11.34, 22.33, 31.32, repro,
1996-08-07,-6.27, -6.73, -7.45, 10.74, 20.69, 29.66, repro,
1996-08-08,-6.84, -5.40, 2.95, 10.66, 20.02, 29.05, repro,
1996-08-09,-1.31, -7.35, -18.56, 10.07, 20.08, 27.87, repro,
1996-08-10,-6.18, 14.06, 7.82, 10.51, 20.60, 28.66, repro,
1996-08-11,-4.28, 13.72, 15.79, 10.60, 20.57, 29.65, repro,
1996-08-12,-7.54, 13.57, 7.36, 10.46, 20.31, 29.39, repro,
1996-08-13,0.92, 4.07, -3.96, 10.31, 20.33, 29.03, repro,
1996-08-14,-1.77, 19.55, -17.76, 10.71, 20.42, 29.84, repro,
1996-08-15,-4.84, -3.21, -3.68, 10.71, 20.67, 29.35, repro,
1996-08-16,-3.49, 1.67, -1.17, 10.28, 19.86, 29.57, repro,
1996-08-17,-7.90, -7.71, 20.93, 11.20, 20.99, 31.68, repro,
1996-08-18,-2.62, -6.10, -12.62, 11.01, 20.73, 30.26, repro,
1996-08-19,-2.64, -0.58, -9.47, 11.34, 20.90, 33.70, repro,
1996-08-20,-7.46, 2.96, 22.61, 10.79, 19.99, 31.15, repro,
1996-08-21,5.54, 4.37, -23.92, 11.41, 20.54, 32.29, repro,
1996-08-22,-4.94, -10.69, 5.48, 10.38, 19.99, 28.90, repro,
1996-08-23,-8.70, 3.74, -12.40, 10.38, 19.68, 29.25, repro,
1996-08-24,-2.45, -3.19, -13.69, 11.29, 21.18, 32.06, repro,
1996-08-25,-7.73, -4.29, -9.52, 10.68, 20.71, 29.86, repro,
1996-08-26,-10.48, -4.70, 1.84, 10.46, 20.85, 28.48, repro,
1996-08-27,-2.85, 8.90, -20.76, 10.26, 19.94, 29.68, repro,
1996-08-28,-5.80, 2.02, -2.27, 10.05, 19.87, 28.03, repro,
1996-08-29,-3.34, 6.71, -41.32, 10.88, 21.13, 32.21, repro,
1996-08-30,0.35, 8.80, -22.59, 10.93, 21.47, 30.83, repro,
1996-08-31,-8.15, -1.19, 18.08, 11.16, 21.33, 30.60, repro,
1996-09-01,-2.43, -5.30, 6.12, 11.69, 23.46, 32.25, repro,
1996-09-02,-6.40, 1.13, 21.84, 11.35, 22.14, 31.19, repro,
1996-09-03,-6.31, -5.44, -20.39, 11.73, 22.87, 33.04, repro,
1996-09-04,0.64, 1.71, -22.82, 10.93, 20.57, 30.82, repro,
1996-09-05,-5.47, -1.62, 1.83, 10.64, 20.67, 29.86, repro,
1996-09-06,-1.00, 1.33, -10.15, 11.37, 22.22, 31.60, repro,
1996-09-07,-4.75, -20.83, -25.25, 10.97, 21.78, 30.91, repro,
1996-09-08,0.94, -8.13, 2.00, 11.31, 22.36, 31.30, repro,
1996-09-09,-16.27, -9.21, 25.24, 12.24, 22.49, 35.66, repro,
1996-09-10,1.13, 4.35, -15.39, 10.97, 21.32, 30.55, repro,
1996-09-11,-7.33, 20.30, -2.68, 11.31, 22.86, 31.89, repro,
1996-09-12,-3.50, -8.41, 1.04, 10.61, 20.04, 29.66, repro,
1996-09-13,-4.78, 5.69, -1.75, 2.71, 2.44, 10.93, repro,
1996-09-14,-6.37, -12.60, -18.04, 10.68, 20.22, 30.14, repro,
1996-09-15,-3.10, 5.58, -8.42, 11.60, 21.43, 33.25, repro,
1996-09-16,0.01, -9.42, -6.87, 10.92, 21.04, 30.32, repro,
1996-09-17,-3.49, -5.69, 2.41, 10.68, 20.63, 30.87, repro,
1996-09-18,1.50, 0.66, -21.93, 10.39, 19.52, 29.54, repro,
1996-09-19,-7.49, 4.87, -12.57, 10.90, 20.23, 29.99, repro,
1996-09-20,-10.37, 7.62, 11.18, 10.71, 20.28, 30.84, repro,
1996-09-21,-9.27, -5.00, 9.40, 10.88, 20.22, 30.22, repro,
1996-09-22,-10.11, 7.24, 3.85, 10.75, 20.44, 30.00, repro,
1996-09-23,-3.43, 1.02, -16.08, 10.63, 21.18, 31.97, repro,
1996-09-24,-1.21, 0.85, -11.36, 12.10, 21.51, 35.19, repro,
1996-09-25,-7.09, 5.72, -2.89, 2.32, 2.07, 8.97, repro,
1996-09-26,-6.29, 4.62, -15.09, 2.46, 2.19, 9.61, repro,
1996-09-27,-5.12, 2.41, -3.84, 2.39, 2.19, 9.30, repro,
1996-09-28,-5.47, 3.42, -12.60, 2.38, 2.09, 9.06, repro,
1996-09-29,-3.44, 6.03, -4.52, 2.49, 2.20, 9.29, repro,
1996-09-30,-3.54, 5.67, -4.32, 2.53, 2.26, 9.32, repro,
1996-10-01,-3.74, 4.59, 4.10, 2.54, 2.23, 9.43, repro,
1996-10-02,-3.02, 5.85, -7.95, 2.43, 2.15, 9.03, repro,
1996-10-03,-1.81, 6.04, -4.63, 2.48, 2.25, 9.31, repro,
1996-10-04,-3.15, 4.16, -3.04, 2.50, 2.29, 9.55, repro,
1996-10-05,-3.60, 4.51, -0.12, 2.50, 2.19, 9.43, repro,
1996-10-06,-4.06, 3.61, -4.41, 2.51, 2.23, 9.16, repro,
1996-10-07,-4.98, 5.51, -3.63, 2.48, 2.20, 9.14, repro,
1996-10-08,-3.45, 5.42, -8.06, 2.56, 2.22, 9.42, repro,
1996-10-09,-2.77, 5.55, 1.20, 2.55, 2.22, 9.57, repro,
1996-10-10,-4.80, 5.61, -5.41, 2.43, 2.14, 9.11, repro,
1996-10-11,-3.57, 6.55, 0.84, 2.45, 2.15, 9.12, repro,
1996-10-12,-3.35, 5.26, -1.64, 2.44, 2.14, 9.01, repro,
1996-10-13,-3.22, 4.85, 3.30, 2.49, 2.20, 9.29, repro,
1996-10-14,-4.78, 5.01, 0.83, 2.48, 2.21, 9.33, repro,
1996-10-15,-3.90, 5.56, 1.71, 2.57, 2.31, 9.69, repro,
1996-10-16,-4.82, 3.98, -0.31, 2.55, 2.28, 9.65, repro,
1996-10-17,-2.54, 4.55, -1.20, 2.59, 2.34, 9.64, repro,
1996-10-18,-6.58, 2.35, -10.86, 2.29, 2.04, 8.93, repro,
1996-10-19,-3.41, 5.13, -2.71, 2.39, 2.07, 9.08, repro,
1996-10-20,-5.64, 4.34, 5.91, 2.32, 2.06, 8.89, repro,
1996-10-21,-3.46, 6.71, 1.74, 2.40, 2.12, 9.00, repro,
1996-10-22,-3.47, 5.93, 4.40, 2.43, 2.15, 9.06, repro,
1996-10-23,-3.07, 4.45, 5.76, 2.44, 2.18, 9.23, repro,
1996-10-24,-6.91, 5.06, -5.52, 2.30, 1.99, 8.79, repro,
1996-10-25,-1.86, 6.45, 9.34, 2.43, 2.16, 9.24, repro,
1996-10-26,-4.16, 5.89, 0.43, 2.40, 2.11, 9.05, repro,
1996-10-27,-3.17, 7.07, 1.40, 2.43, 2.16, 9.21, repro,
1996-10-28,-3.22, 6.18, -5.29, 2.48, 2.20, 9.32, repro,
1996-10-29,-6.26, 4.41, -6.10, 2.34, 2.07, 9.06, repro,
1996-10-30,-7.15, 5.14, -4.94, 2.41, 2.08, 9.27, repro,
1996-10-31,-1.00, 4.60, 4.09, 2.48, 2.09, 9.18, repro,
1996-11-01,-2.40, 7.28, 3.44, 2.49, 2.18, 9.31, repro,
1996-11-02,-1.71, 5.99, 0.26, 2.59, 2.20, 9.69, repro,
1996-11-03,-5.16, 4.83, 0.87, 2.52, 2.15, 9.44, repro,
1996-11-04,-2.24, 6.34, -8.88, 2.76, 2.34, 10.08, repro,
1996-11-05,-5.80, 5.13, -4.59, 2.54, 2.17, 9.33, repro,
1996-11-06,-7.31, 4.39, -5.84, 2.61, 2.27, 9.67, repro,
1996-11-07,-3.47, 7.02, 0.48, 2.65, 2.29, 9.62, repro,
1996-11-08,-3.97, 6.44, -12.24, 2.44, 2.20, 9.49, repro,
1996-11-09,-4.39, 6.77, 2.77, 2.58, 2.30, 9.72, repro,
1996-11-10,-4.75, 6.55, 9.39, 2.65, 2.29, 9.76, repro,
1996-11-11,-5.60, 5.24, 6.02, 2.47, 2.12, 9.56, repro,
1996-11-12,-3.71, 7.30, -4.03, 2.62, 2.30, 9.81, repro,
1996-11-13,-4.31, 8.17, 2.60, 2.57, 2.21, 9.68, repro,
1996-11-14,-3.25, 6.86, 1.18, 2.48, 2.21, 9.55, repro,
1996-11-15,-5.58, 6.48, -0.27, 2.50, 2.24, 9.58, repro,
1996-11-16,-4.83, 6.67, 2.48, 2.66, 2.35, 10.07, repro,
1996-11-17,-4.75, 6.05, 2.72, 2.91, 2.33, 10.90, repro,
1996-11-18,-1.96, 8.23, 1.89, 2.97, 2.48, 11.44, repro,
1996-11-19,-5.11, 7.15, 1.44, 2.67, 2.28, 9.95, repro,
1996-11-20,-2.73, 7.37, 14.00, 2.46, 2.16, 9.30, repro,
1996-11-21,0.53, 8.91, -0.84, 2.50, 2.17, 9.41, repro,
1996-11-22,-2.29, 6.11, -7.44, 2.49, 2.13, 9.47, repro,
1996-11-23,0.77, 6.98, -7.36, 2.57, 2.25, 9.56, repro,
1996-11-24,-1.33, 9.06, -0.16, 2.70, 2.29, 9.89, repro,
1996-11-25,-3.30, 6.15, -4.93, 2.73, 2.27, 10.18, repro,
1996-11-26,-0.22, 5.48, -17.70, 2.52, 2.19, 9.37, repro,
1996-11-27,-5.97, 5.68, 3.09, 2.61, 2.16, 9.86, repro,
1996-11-28,-4.19, 7.51, 3.82, 2.63, 2.35, 10.16, repro,
1996-11-29,-3.65, 9.89, 6.92, 2.77, 2.41, 10.81, repro,
1996-11-30,-1.47, 8.96, 13.94, 2.84, 2.29, 10.91, repro,
1996-12-01,0.19, 8.74, 0.60, 2.62, 2.29, 10.11, repro,
1996-12-02,-4.19, 8.00, 9.70, 2.98, 2.42, 11.11, repro,
1996-12-03,-3.99, 7.22, -0.10, 2.58, 2.24, 9.78, repro,
1996-12-04,-6.99, 7.83, 19.39, 2.64, 2.25, 10.09, repro,
1996-12-05,-2.49, 5.95, 11.72, 2.79, 2.27, 10.33, repro,
1996-12-06,-1.20, 8.34, 11.66, 2.88, 2.32, 10.80, repro,
1996-12-07,1.39, 8.46, 3.31, 2.76, 2.24, 10.24, repro,
1996-12-08,-1.61, 5.83, 16.44, 2.66, 2.25, 9.81, repro,
1996-12-09,-0.22, 8.72, 13.82, 2.75, 2.27, 10.35, repro,
1996-12-10,-0.58, 5.72, 2.65, 2.78, 2.27, 10.24, repro,
1996-12-11,-1.42, 8.76, 17.31, 2.52, 2.20, 9.62, repro,
1996-12-12,-3.82, 7.49, 2.41, 2.62, 2.24, 9.95, repro,
1996-12-13,-1.92, 7.28, 0.04, 2.60, 2.28, 9.81, repro,
1996-12-14,-0.77, 8.17, 13.08, 2.58, 2.21, 9.68, repro,
1996-12-15,-1.07, 8.79, 11.24, 2.62, 2.27, 9.87, repro,
1996-12-16,-2.80, 8.56, 10.34, 2.54, 2.20, 9.78, repro,
1996-12-17,-2.29, 6.81, 7.03, 2.82, 2.31, 10.75, repro,
1996-12-18,-0.49, 6.38, 3.15, 2.54, 2.18, 9.61, repro,
1996-12-19,-0.70, 5.46, 6.49, 2.61, 2.25, 9.90, repro,
1996-12-20,-1.74, 9.03, 10.86, 2.62, 2.24, 9.79, repro,
1996-12-21,-1.26, 6.13, 12.79, 2.59, 2.25, 9.85, repro,
1996-12-22,0.80, 9.01, 6.78, 2.55, 2.30, 9.70, repro,
1996-12-23,-0.49, 5.77, 2.17, 2.58, 2.23, 9.71, repro,
1996-12-24,0.71, 6.44, 2.06, 2.58, 2.20, 9.67, repro,
1996-12-25,1.63, 7.54, 10.30, 2.57, 2.20, 9.52, repro,
1996-12-26,-0.36, 6.40, 12.27, 2.62, 2.22, 9.68, repro,
1996-12-28,1.67, 7.17, -5.31, 2.59, 2.20, 9.72, repro,
1996-12-29,-0.66, 6.51, 7.33, 2.56, 2.25, 9.81, repro,
1996-12-30,0.05, 4.81, 1.75, 2.71, 2.31, 10.01, repro,
1996-12-31,0.47, 8.34, 12.59, 2.71, 2.34, 10.21, repro,
1997-01-01,-1.27, 6.44, 16.92, 2.52, 2.28, 9.75, repro,
1997-01-02,-2.16, 7.90, 14.06, 2.55, 2.33, 9.87, repro,
1997-01-03,-0.63, 7.03, 9.64, 2.57, 2.32, 9.80, repro,
1997-01-04,1.53, 5.45, 6.72, 2.52, 2.28, 9.67, repro,
1997-01-05,-0.59, 9.14, 6.79, 2.64, 2.47, 10.15, repro,
1997-01-06,-2.90, 12.75, 5.44, 2.69, 2.35, 10.11, repro,
1997-01-07,-3.20, 7.00, 2.48, 2.47, 2.23, 9.78, repro,
1997-01-08,-2.57, 6.82, 10.65, 2.40, 2.19, 9.44, repro,
1997-01-09,-3.46, 5.02, 4.97, 2.54, 2.26, 9.90, repro,
1997-01-10,-3.13, 4.12, -9.79, 2.41, 2.19, 9.55, repro,
1997-01-11,-3.76, 4.32, 4.63, 2.37, 2.12, 9.35, repro,
1997-01-12,-3.22, 5.17, 2.92, 2.48, 2.17, 9.70, repro,
1997-01-13,-4.49, 7.89, 4.83, 2.44, 2.21, 9.57, repro,
1997-01-14,-5.45, 6.20, 3.15, 2.44, 2.22, 9.54, repro,
1997-01-15,-3.76, 5.17, -8.76, 2.50, 2.39, 10.13, repro,
1997-01-16,-3.47, 5.61, -10.36, 2.59, 2.35, 10.01, repro,
1997-01-17,-4.08, 8.54, -0.01, 2.67, 2.36, 10.40, repro,
1997-01-18,-4.50, 7.07, -1.85, 2.59, 2.36, 10.11, repro,
1997-01-19,-3.33, 6.92, 10.86, 2.54, 2.27, 9.80, repro,
1997-01-20,-5.17, 3.91, 2.65, 2.38, 2.13, 9.52, repro,
1997-01-21,-3.57, 4.82, -27.46, 3.21, 3.05, 13.58, repro,
1997-01-22,-1.71, 8.60, 1.39, 2.65, 2.30, 10.25, repro,
1997-01-23,-7.85, 6.95, 13.08, 2.51, 2.23, 9.95, repro,
1997-01-24,-3.81, 6.47, 9.49, 2.62, 2.38, 9.94, repro,
1997-01-25,-1.84, 7.51, 10.60, 2.44, 2.22, 9.73, repro,
1997-01-26,-3.20, 5.24, -1.83, 2.49, 2.22, 9.79, repro,
1997-01-27,-2.13, 9.51, -5.87, 4.62, 3.40, 17.82, repro,
1997-01-28,-3.69, 7.53, -9.09, 2.45, 2.21, 9.75, repro,
1997-01-29,-4.42, 4.34, -13.04, 2.48, 2.23, 9.77, repro,
1997-01-30,-2.70, 7.60, 8.02, 2.52, 2.26, 9.77, repro,
1997-01-31,-1.77, 7.87, 4.44, 2.44, 2.21, 9.49, repro,
1997-02-01,-1.96, 7.66, 0.07, 2.36, 2.09, 9.26, repro,
1997-02-02,2.50, 5.30, 9.80, 3.17, 2.74, 11.09, repro,
1997-02-03,0.85, 6.13, 12.60, 3.14, 2.71, 11.08, repro,
1997-02-04,2.03, 6.28, 13.74, 3.46, 2.86, 12.43, repro,
1997-02-05,-0.49, 7.59, 11.67, 3.32, 2.84, 12.02, repro,
1997-02-06,-0.59, 7.31, 7.73, 3.22, 2.83, 11.71, repro,
1997-02-07,-1.27, 6.79, 3.12, 3.22, 2.84, 11.66, repro,
1997-02-08,1.19, 5.61, 18.02, 3.13, 2.76, 11.31, repro,
1997-02-09,0.64, 6.06, 11.05, 3.10, 2.69, 11.06, repro,
1997-02-10,1.36, 6.21, 11.66, 3.39, 2.85, 12.39, repro,
1997-02-11,0.57, 3.33, 9.00, 3.17, 2.70, 11.27, repro,
1997-02-12,-0.60, 6.27, 13.60, 4.12, 3.76, 16.85, repro,
1997-02-13,2.17, 5.71, 2.07, 3.04, 2.57, 10.67, repro,